Header for Extended Forecast Station List Page

Search by: ID | Name | Date | Parm | Value | Avg | % Avg
Sort by: ID | Name | Date | Parm | Value | Avg | % Avg

Enter search or view all records.

Click on id for station plot
#IDNameDateParmValueAvg% Avg
0MYKO3MCKAY CREEK-NEAR PILOT ROCK07-22-2021DISCHARGE (KAF)0151
1RIDI1WILLOW CREEK-RIRIE DAM07-22-2021INFLOW (KAF)2636
2LWRI1LITTLE WOOD-LITTLE WOOD DAM07-22-2021INFLOW (KAF)51534
3WRMO3MALHEUR-WARM SPRINGS DAM07-22-2021INFLOW (KAF)54109
4BERO3MALHEUR-AGENCY VALLEY DAM07-22-2021INFLOW (KAF)6785
5TCHW1WALLA WALLA-NEAR TOUCHET07-22-2021DISCHARGE (KAF)61155
6MAGI1BIG WOOD-MAGIC DAM07-22-2021INFLOW (KAF)72924
7TNAW1TEANAWAY-BELOW FORKS07-22-2021DISCHARGE (KAF)81087
8HOTI1BRUNEAU-NEAR HOT SPRINGS07-22-2021DISCHARGE (KAF)92240
9GIBO3UMATILLA-NEAR GIBBON07-22-2021DISCHARGE (KAF)101277
10DEDI1DEADWOOD-NEAR LOWMAN07-22-2021INFLOW (KAF)122059
11PDTO3UMATILLA-AT PENDLETON07-22-2021DISCHARGE (KAF)121489
12SATI1ST MARIES-NEAR SANTA07-22-2021DISCHARGE (KAF)131876
13PIHI1PORTNEUF-AT POCATELLO07-22-2021DISCHARGE (KAF)133143
14HWRI1BIG LOST-AT HOWELL RANCH NEAR CHILLY07-22-2021DISCHARGE (KAF)174042
15ARDW1ENTIAT-NEAR ARDENVOIR07-22-2021DISCHARGE (KAF)233567
16BUDW1BUMPING-BUMPING LAKE DAM07-22-2021INFLOW (KAF)2322103
17MACI1BIG LOST-MACKAY RESERVOIR NEAR MACKAY07-22-2021INFLOW (KAF)242887
18MONO3NF JOHN DAY-AT MONUMENT07-22-2021DISCHARGE (KAF)243766
19STRM8ST. REGIS-NEAR ST. REGIS07-22-2021DISCHARGE (KAF)253180
20KADW1KACHESS-KACHESS DAM07-22-2021INFLOW (KAF)2718153
21DLGM8CLARK FORK-AT DEER LODGE07-22-2021DISCHARGE (KAF)294664
22HALI1BIG WOOD-AT HAILEY07-22-2021DISCHARGE (KAF)295849
23OWYO3OWYHEE-OWYHEE DAM07-22-2021INFLOW (KAF)325162
24SERO3JOHN DAY-AT SERVICE CK07-22-2021DISCHARGE (KAF)356255
25KEDW1YAKIMA-KEECHELUS LAKE07-22-2021INFLOW (KAF)3828139
26UMAO3UMATILLA-NEAR UMATILLA07-22-2021DISCHARGE (KAF)4212334
27WSRI1WEISER-NEAR WEISER07-22-2021DISCHARGE (KAF)445185
28ARAI1SF BOISE-ANDERSON RANCH DAM07-22-2021INFLOW (KAF)587478
29CSDI1NF PAYETTE-CASCADE DAM07-22-2021INFLOW (KAF)616792
30RCCM8ROCK CREEK-NEAR CLINTON07-22-2021DISCHARGE (KAF)636991
31EASW1YAKIMA-AT EASTON07-22-2021DISCHARGE (KAF)647289
32RILW1TIETON-RIMROCK LAKE NEAR RIMROCK07-22-2021INFLOW (KAF)7067105
33CHEI1FALL RIVER-NEAR CHESTER07-22-2021DISCHARGE (KAF)717989
34CLUW1CLE ELUM-CLE ELUM LAKE07-22-2021INFLOW (KAF)7878100
35CLFW1NACHES-NEAR CLIFFDEL07-22-2021DISCHARGE (KAF)8685101
36LAUW1KETTLE-AT LAURIER07-22-2021DISCHARGE (KAF)8716054
37DRMM8CLARK FORK-NR DRUMMOND07-22-2021DISCHARGE (KAF)90MM
38HODO3HOOD-NEAR TUCKER BRIDGE07-22-2021DISCHARGE (KAF)949895
39PATW1METHOW-NEAR PATEROS07-22-2021DISCHARGE (KAF)9813672
40NACW1NACHES-NEAR NACHES07-22-2021DISCHARGE (KAF)10412186
41IPDI1HENRYS FORK-ISLAND PARK DAM07-22-2021INFLOW (KAF)10514573
42TRYO3GRANDE RONDE-TROY07-22-2021DISCHARGE (KAF)10620552
43JLKW4SNAKE-JACKSON LAKE AT DAM07-22-2021INFLOW (KAF)11116467
44BIGI1BOISE-AT GLENWOOD BRIDGE07-22-2021DISCHARGE (KAF)12314585
45TEAI1TETON-NEAR ST. ANTHONY07-22-2021DISCHARGE (KAF)12816677
46PRTI1PRIEST-NEAR PRIEST RIVER07-22-2021DISCHARGE (KAF)13116678
47UNDW1WHITE SALMON-NEAR UNDERWOOD07-22-2021DISCHARGE (KAF)13115982
48CHDW1CHELAN-LAKE CHELAN DAM07-22-2021INFLOW (KAF)14325157
49PITW1KLICKITAT-NEAR PITT07-22-2021DISCHARGE (KAF)14919377
50PARW1YAKIMA-NEAR PARKER07-22-2021DISCHARGE (KAF)15416692
51BONM8BLACKFOOT-NEAR BONNER07-22-2021DISCHARGE (KAF)15918188
52TONW1OKANOGAN-NEAR TONASKET07-22-2021DISCHARGE (KAF)16831653
53WGCM8MF FLATHEAD-NEAR WEST GLACIER07-22-2021DISCHARGE (KAF)18126967
54BITM8BITTERROOT-NEAR MISSOULA07-22-2021DISCHARGE (KAF)18423479
55COEI1COEUR D ALENE-COEUR D ALENE LAKE07-22-2021INFLOW (KAF)18423379
56HHWM8SF FLATHEAD-HUNGRY HORSE DAM07-22-2021INFLOW (KAF)18626072
57FCFM8NF FLATHEAD-NEAR COLUMBIA FALLS07-22-2021DISCHARGE (KAF)18732358
58PARI1BOISE-NEAR PARMA07-22-2021DISCHARGE (KAF)18722185
59PESW1WENATCHEE-AT PESHASTIN07-22-2021DISCHARGE (KAF)21229572
60LUCI1BOISE-LUCKY PEAK DAM07-22-2021INFLOW (KAF)239MM
61EMMI1PAYETTE-NEAR EMMETT07-22-2021DISCHARGE (KAF)25640763
62DWRI1NF CLEARWATER-DWORSHAK DAM07-22-2021INFLOW (KAF)25937769
63ANTI1HENRYS FORK-AT ST. ANTHONY07-22-2021DISCHARGE (KAF)27732186
64SPOW1SPOKANE-AT SPOKANE07-22-2021DISCHARGE (KAF)288MM
65REXI1HENRYS FORK-AT REXBURG07-22-2021DISCHARGE (KAF)31937984
66ABOM8CLARK FORK-ABOVE MISSOULA07-22-2021DISCHARGE (KAF)32539582
67MILI1SNAKE-AT MILNER07-22-2021DISCHARGE (KAF)360151238
68ORFI1CLEARWATER-AT OROFINO07-22-2021DISCHARGE (KAF)37952472
69KIOW1YAKIMA-AT KIONA07-22-2021DISCHARGE (KAF)41846790
70LLKW1SPOKANE-AT LONGLAKE07-22-2021INFLOW (KAF)43861272
71BELM8CLARK FORK-BELOW MISSOULA07-22-2021DISCHARGE (KAF)51063580
72UMTW1YAKIMA-AT UMTANUM07-22-2021DISCHARGE (KAF)537529101
73SRGM8CLARK FORK-AT ST REGIS07-22-2021DISCHARGE (KAF)64083277
74SNAI1SNAKE-AT BLACKFOOT07-22-2021DISCHARGE (KAF)709583122
75BFTI1SNAKE-NEAR BLACKFOOT07-22-2021DISCHARGE (KAF)716578124
76WHBI1SALMON-AT WHITEBIRD07-22-2021DISCHARGE (KAF)867126968
77CFMM8FLATHEAD-AT COLUMBIA FALLS07-22-2021DISCHARGE (KAF)941123476
78JKSW4SNAKE-NEAR JACKSON07-22-2021DISCHARGE (KAF)950786121
79KERM8FLATHEAD-SELI’Š KSANKA QLISPE’ DAM07-22-2021INFLOW (KAF)979146667
80ALPW4SNAKE-NEAR ALPINE07-22-2021DISCHARGE (KAF)1046937112
81SHYI1SNAKE-NEAR SHELLEY07-22-2021DISCHARGE (KAF)1079937115
82MODO3DESCHUTES-AT MOODY NR BIGGS07-22-2021DISCHARGE (KAF)1079111197
83LYDM8KOOTENAI-LIBBY DAM07-22-2021INFLOW (KAF)1130179063
84SIFI1SNAKE-AB EAGLE ROCK NR IDAHO FALLS07-22-2021DISCHARGE (KAF)11881182100
85PLDI1SF SNAKE-PALISADES DAM07-22-2021INFLOW (KAF)1274129299
86AFRI1SNAKE-AMERICAN FALLS RESERVOIR07-22-2021INFLOW (KAF)13091239106
87SPDI1CLEARWATER-AT SPALDING07-22-2021DISCHARGE (KAF)14231052135
88LEOI1KOOTENAI-AT LEONIA07-22-2021DISCHARGE (KAF)1494229265
89HEII1SNAKE-NEAR HEISE07-22-2021DISCHARGE (KAF)1580160798
90SWAI1SNAKE-BELOW SWAN FALLS07-22-2021DISCHARGE (KAF)1980210394
91NOXM8CLARK FORK-NOXON RAPIDS DAM07-22-2021INFLOW (KAF)2175299073
92CABI1CLARK FORK-CABINET GORGE DAM07-22-2021INFLOW (KAF)2397317376
93ALFW1PEND OREILLE-ALBENI FALLS DAM07-22-2021INFLOW (KAF)2468345172
94WEII1SNAKE-AT WEISER07-22-2021DISCHARGE (KAF)2775307990
95BRNI1SNAKE-BROWNLEE DAM07-22-2021INFLOW (KAF)2897313492
96ANAW1SNAKE-NEAR ANATONE07-22-2021DISCHARGE (KAF)3719474378
97LGDW1SNAKE-LOWER GRANITE DAM07-22-2021INFLOW (KAF)5137586088
98LGSW1SNAKE-LITTLE GOOSE DAM07-22-2021INFLOW (KAF)5154590187
99LMNW1SNAKE-LOWER MONUMENTAL DAM07-22-2021INFLOW (KAF)5166591987
100IHDW1SNAKE-ICE HARBOR DAM07-22-2021INFLOW (KAF)5166582489
101CHJW1COLUMBIA-CHIEF JOSEPH DAM07-22-2021INFLOW (KAF)151672068373
102CIBW1COLUMBIA-AT INTL BOUNDARY07-22-2021DISCHARGE (KAF)15329MM
103WELW1COLUMBIA-WELLS DAM07-22-2021INFLOW (KAF)154532095074
104RRHW1COLUMBIA-ROCKY REACH DAM07-22-2021INFLOW (KAF)157722149173
105GCDW1COLUMBIA-GRAND COULEE DAM07-22-2021INFLOW (KAF)158622141874
106WANW1COLUMBIA-WANAPUM DAM07-22-2021INFLOW (KAF)160872174574
107PRWW1COLUMBIA-PRIEST RAPIDS DAM07-22-2021INFLOW (KAF)160952219173
108MCDW1COLUMBIA-MCNARY DAM07-22-2021INFLOW (KAF)218352888476
109JDAO3COLUMBIA-JOHN DAY DAM07-22-2021INFLOW (KAF)222072936476
110TDAO3COLUMBIA-THE DALLES DAM07-22-2021INFLOW (KAF)227962976577
111BONO3COLUMBIA-BONNEVILLE DAM07-22-2021INFLOW (KAF)231863084475
112BFEI1KOOTENAI-AT BONNERS FERRY07-22-2021STAGE (FT)MMM
113HOPI1PEND OREILLE-PEND OREILLE LAKE NR HOPE07-22-2021LAKE ELEVATION (FT)MMM
114SJMI1ST JOE-AT ST MARIES07-22-2021STAGE (FT)MMM
115BULO3BULLY CREEK-BULLY CREEK DAM07-22-2021INFLOW (KAF)M0M